When you browse on this site, cookies collect data to enhance your experience and personalize the content and advertising you see.
Visit our Privacy Policy to learn more. By continuing to use the site, you agree to this use of cookies and data.

Stündliche Wetter Santa Fe

Heute, 14 Juli, Dienstag

Zeit Temperatur Niederschläge Wind Luftdruck Luftfeuchtigkeit
00:00 +6°C° 0 mm 1 m/S 768 mmHg 45%
01:00 +6°C° 0 mm 1 m/S 768 mmHg 44%
02:00 +5°C° 0 mm 1 m/S 768 mmHg 41%
03:00 +4°C° 0 mm 0 m/S 768 mmHg 41%
04:00 +4°C° 0 mm 0 m/S 768 mmHg 41%
05:00 +3°C° 0 mm 0 m/S 767 mmHg 41%
06:00 +4°C° 0 mm 0 m/S 768 mmHg 42%
07:00 +4°C° 0 mm 0 m/S 769 mmHg 43%
08:00 +7°C° 0 mm 1 m/S 769 mmHg 47%
09:00 +8°C° 0 mm 1 m/S 769 mmHg 42%
10:00 +10°C° 0 mm 1 m/S 769 mmHg 36%
11:00 +12°C° 0 mm 1 m/S 768 mmHg 31%
12:00 +13°C° 0 mm 2 m/S 768 mmHg 31%
13:00 +14°C° 0 mm 2 m/S 767 mmHg 31%
14:00 +15°C° 0 mm 2 m/S 766 mmHg 31%
15:00 +14°C° 0 mm 2 m/S 766 mmHg 35%
16:00 +12°C° 0 mm 2 m/S 765 mmHg 39%
17:00 +11°C° 0 mm 1 m/S 765 mmHg 44%
18:00 +10°C° 0 mm 2 m/S 765 mmHg 46%
19:00 +9°C° 0 mm 2 m/S 765 mmHg 48%
20:00 +8°C° 0 mm 2 m/S 766 mmHg 50%
21:00 +7°C° 0 mm 2 m/S 765 mmHg 51%
22:00 +7°C° 0 mm 3 m/S 765 mmHg 53%
23:00 +5°C° 0 mm 3 m/S 765 mmHg 55%

Morgen, 15 Juli, Mittwoch

Zeit Temperatur Niederschläge Wind Luftdruck Luftfeuchtigkeit
00:00 +5°C° 0 mm 3 m/S 765 mmHg 56%
01:00 +5°C° 0 mm 3 m/S 765 mmHg 58%
02:00 +4°C° 0 mm 3 m/S 766 mmHg 59%
03:00 +4°C° 0 mm 3 m/S 765 mmHg 60%
04:00 +3°C° 0 mm 3 m/S 765 mmHg 61%
05:00 +3°C° 0 mm 3 m/S 765 mmHg 63%
06:00 +4°C° 0 mm 2 m/S 765 mmHg 63%
07:00 +4°C° 0 mm 2 m/S 765 mmHg 63%
08:00 +5°C° 0 mm 2 m/S 765 mmHg 63%
09:00 +7°C° 0 mm 3 m/S 765 mmHg 56%
10:00 +9°C° 0 mm 3 m/S 765 mmHg 49%
11:00 +11°C° 0 mm 3 m/S 766 mmHg 42%
12:00 +12°C° 0 mm 3 m/S 765 mmHg 40%
13:00 +13°C° 0 mm 3 m/S 764 mmHg 38%
14:00 +14°C° 0 mm 3 m/S 763 mmHg 36%
15:00 +13°C° 0 mm 3 m/S 763 mmHg 41%
16:00 +12°C° 0 mm 3 m/S 763 mmHg 47%
17:00 +11°C° 0 mm 3 m/S 762 mmHg 52%
18:00 +10°C° 0 mm 3 m/S 763 mmHg 58%
19:00 +9°C° 0 mm 3 m/S 763 mmHg 64%
20:00 +8°C° 0 mm 3 m/S 763 mmHg 70%
21:00 +9°C° 0 mm 3 m/S 763 mmHg 68%
22:00 +9°C° 0 mm 3 m/S 763 mmHg 65%
23:00 +10°C° 0 mm 3 m/S 763 mmHg 63%

übermorgen, 16 Juli, Donnerstag

Zeit Temperatur Niederschläge Wind Luftdruck Luftfeuchtigkeit
00:00 +9°C° 0 mm 3 m/S 762 mmHg 64%
01:00 +9°C° 0 mm 2 m/S 762 mmHg 66%
02:00 +9°C° 0 mm 2 m/S 761 mmHg 68%
03:00 +9°C° 0 mm 2 m/S 761 mmHg 68%
04:00 +9°C° 0 mm 2 m/S 761 mmHg 68%
05:00 +9°C° 0 mm 2 m/S 761 mmHg 69%
06:00 +9°C° 0 mm 2 m/S 761 mmHg 69%
07:00 +9°C° 0 mm 2 m/S 761 mmHg 69%
08:00 +9°C° 0 mm 2 m/S 761 mmHg 70%
09:00 +12°C° 0 mm 1 m/S 762 mmHg 64%
10:00 +13°C° 0 mm 1 m/S 762 mmHg 57%
11:00 +15°C° 0 mm 1 m/S 762 mmHg 51%
12:00 +16°C° 0 mm 1 m/S 761 mmHg 48%
13:00 +18°C° 0 mm 1 m/S 761 mmHg 44%
14:00 +19°C° 0 mm 1 m/S 760 mmHg 41%
15:00 +19°C° 0 mm 1 m/S 760 mmHg 46%
16:00 +18°C° 0 mm 1 m/S 760 mmHg 50%
17:00 +16°C° 0 mm 2 m/S 759 mmHg 55%
18:00 +15°C° 0 mm 2 m/S 760 mmHg 61%
19:00 +14°C° 0 mm 2 m/S 760 mmHg 66%
20:00 +13°C° 0 mm 2 m/S 761 mmHg 72%
21:00 +12°C° 0 mm 2 m/S 761 mmHg 75%
22:00 +12°C° 0 mm 2 m/S 761 mmHg 78%
23:00 +10°C° 0 mm 2 m/S 761 mmHg 81%

17 Juli, Freitag

Zeit Temperatur Niederschläge Wind Luftdruck Luftfeuchtigkeit
00:00 +10°C° 0 mm 2 m/S 761 mmHg 84%
01:00 +10°C° 0 mm 2 m/S 761 mmHg 87%
02:00 +10°C° 0 mm 2 m/S 761 mmHg 89%
03:00 +10°C° 0 mm 2 m/S 760 mmHg 92%
04:00 +9°C° 0 mm 2 m/S 760 mmHg 94%
05:00 +9°C° 0 mm 2 m/S 760 mmHg 96%
06:00 +10°C° 0 mm 2 m/S 760 mmHg 96%
07:00 +10°C° 0 mm 2 m/S 760 mmHg 96%
08:00 +12°C° 0 mm 2 m/S 760 mmHg 95%
09:00 +12°C° 0 mm 3 m/S 760 mmHg 94%
10:00 +13°C° 0 mm 3 m/S 760 mmHg 92%
11:00 +13°C° 0 mm 4 m/S 760 mmHg 91%
12:00 +14°C° 0 mm 4 m/S 759 mmHg 89%
13:00 +16°C° 0 mm 3 m/S 758 mmHg 87%
14:00 +16°C° 0 mm 3 m/S 757 mmHg 85%
15:00 +16°C° 0 mm 3 m/S 757 mmHg 86%
16:00 +16°C° 0 mm 3 m/S 756 mmHg 87%
17:00 +16°C° 0 mm 2 m/S 756 mmHg 88%
18:00 +16°C° 0 mm 3 m/S 755 mmHg 89%
19:00 +15°C° 0 mm 4 m/S 755 mmHg 90%
20:00 +15°C° 0 mm 4 m/S 755 mmHg 92%
21:00 +16°C° 0 mm 3 m/S 755 mmHg 93%
22:00 +16°C° 0 mm 3 m/S 755 mmHg 94%
23:00 +16°C° 0 mm 2 m/S 755 mmHg 95%

18 Juli, Samstag

Zeit Temperatur Niederschläge Wind Luftdruck Luftfeuchtigkeit
00:00 +16°C° 0 mm 2 m/S 754 mmHg 96%
01:00 +16°C° 0 mm 2 m/S 754 mmHg 97%
02:00 +16°C° 0 mm 2 m/S 753 mmHg 98%
03:00 +17°C° 0 mm 2 m/S 753 mmHg 98%
04:00 +17°C° 0 mm 2 m/S 753 mmHg 98%
05:00 +17°C° 0 mm 2 m/S 753 mmHg 98%
06:00 +17°C° 0 mm 2 m/S 753 mmHg 98%
07:00 +18°C° 0 mm 2 m/S 753 mmHg 97%
08:00 +18°C° 0 mm 3 m/S 753 mmHg 97%
09:00 +20°C° 0 mm 3 m/S 753 mmHg 87%
10:00 +23°C° 0 mm 4 m/S 753 mmHg 76%
11:00 +26°C° 0 mm 4 m/S 753 mmHg 66%
12:00 +27°C° 0 mm 4 m/S 753 mmHg 61%
13:00 +28°C° 0 mm 4 m/S 752 mmHg 57%
14:00 +29°C° 0 mm 4 m/S 752 mmHg 52%
15:00 +28°C° 0 mm 3 m/S 752 mmHg 55%
16:00 +27°C° 0 mm 2 m/S 752 mmHg 59%
17:00 +26°C° 0 mm 1 m/S 752 mmHg 62%
18:00 +25°C° 0 mm 1 m/S 752 mmHg 65%
19:00 +24°C° 0 mm 2 m/S 752 mmHg 68%
20:00 +23°C° 0 mm 2 m/S 753 mmHg 71%
21:00 +23°C° 0 mm 2 m/S 753 mmHg 72%
22:00 +21°C° 0 mm 2 m/S 753 mmHg 73%
23:00 +21°C° 0 mm 2 m/S 753 mmHg 74%

19 Juli, Sonntag

Zeit Temperatur Niederschläge Wind Luftdruck Luftfeuchtigkeit
00:00 +21°C° 0 mm 1 m/S 753 mmHg 75%
01:00 +21°C° 0 mm 1 m/S 754 mmHg 77%
02:00 +18°C° 0 mm 0 m/S 754 mmHg 78%
03:00 +20°C° 0 mm 1 m/S 754 mmHg 78%
04:00 +20°C° 0 mm 1 m/S 754 mmHg 79%
05:00 +20°C° 0 mm 1 m/S 754 mmHg 79%
06:00 +19°C° 0 mm 2 m/S 754 mmHg 79%
07:00 +20°C° 0 mm 2 m/S 755 mmHg 80%
08:00 +20°C° 0 mm 3 m/S 755 mmHg 80%
09:00 +22°C° 0 mm 3 m/S 755 mmHg 72%
10:00 +25°C° 0 mm 3 m/S 755 mmHg 64%
11:00 +27°C° 0 mm 4 m/S 755 mmHg 56%
12:00 +28°C° 0 mm 3 m/S 755 mmHg 53%
13:00 +29°C° 0 mm 3 m/S 754 mmHg 50%
14:00 +29°C° 0 mm 3 m/S 754 mmHg 47%
15:00 +28°C° 0 mm 2 m/S 754 mmHg 51%
16:00 +27°C° 0 mm 2 m/S 754 mmHg 55%
17:00 +26°C° 0 mm 1 m/S 754 mmHg 59%
18:00 +25°C° 0 mm 2 m/S 754 mmHg 62%
19:00 +24°C° 0 mm 2 m/S 754 mmHg 66%
20:00 +24°C° 0 mm 2 m/S 755 mmHg 70%
21:00 +22°C° 0 mm 3 m/S 755 mmHg 71%
22:00 +22°C° 0 mm 3 m/S 755 mmHg 72%
23:00 +22°C° 0 mm 3 m/S 755 mmHg 73%
Mehr zeigen